Regional Weather Roundup
Issued by NWS

Home | Current Version | Previous Version | Text Only | Print | Product List | Glossary Off
Versions: 1 2 3 4 5 6 7 8 9 10 11 12 13 14 15 16 17 18 19 20 21 22 23 24 25 26 27 28 29 30 31 32 33 34 35 36 37 38 39 40 41 42 43 44 45 46 47 48 49 50

000
ASUS43 KLMK 200502
RWRKY
KENTUCKY REGIONAL WEATHER ROUNDUP
NATIONAL WEATHER SERVICE LOUISVILLE KY
1200 AM EST SAT DEC 20 2014

NOTE "FAIR" INDICATES FEW OR NO CLOUDS BELOW 12,000 FEET
WITH NO SIGNIFICANT WEATHER AND/OR OBSTRUCTIONS TO VISIBILITY.

KYZ001>023-026-027-061>063-070>075-200600-
WESTERN AND SOUTH CENTRAL KENTUCKY

CITY           SKY/WX    TMP DP  RH WIND       PRES   REMARKS
PADUCAH        MOCLDY    35  27  72 CALM      30.28R
HENDERSON      CLOUDY    34  23  64 E6        30.28S WCI  29
OWENSBORO      CLOUDY    33  24  70 E5        30.29R WCI  28
HOPKINSVILLE   CLOUDY    34  27  75 NE5       30.24F WCI  30
BOWLING GREEN  CLOUDY    34  25  69 NE3       30.27R
GLASGOW        NOT AVBL
$$

KYZ024-025-028>034-038-045-046-053-200600-
NORTH CENTRAL KENTUCKY

CITY           SKY/WX    TMP DP  RH WIND       PRES   REMARKS
LOUISVILLE/SDF CLOUDY    30  22  72 E5        30.26S WCI  25
LOUISVILLE/LOU CLOUDY    29  22  75 E6        30.27R WCI  23
FORT KNOX      CLOUDY    28  22  76 NE6       30.24S WCI  22
$$

KYZ035>037-039>044-047>052-055>060-089>105-200600-
NORTHEAST KENTUCKY

CITY           SKY/WX    TMP DP  RH WIND       PRES   REMARKS
LEXINGTON      PTCLDY    25  20  81 E5        30.25S WCI  19
COVINGTON      CLOUDY    31  20  63 E3        30.25S
FRANKFORT      MOCLDY    25  19  78 CALM      30.25S
$$

KYZ054-064>069-076>088-106>120-200600-
SOUTHEAST KENTUCKY

CITY           SKY/WX    TMP DP  RH WIND       PRES   REMARKS
JACKSON        PTCLDY    27  21  78 NE3       30.21S
LONDON         PTCLDY    29  22  75 N5        30.20F WCI  24
SOMERSET       NOT AVBL
MIDDLESBORO    NOT AVBL
MONTICELLO     CLOUDY    31  27  85 CALM      30.25F
$$



USA.gov is the U.S. government's official web portal to all federal, state and local government web resources and services.